Santa Ana, CA

12:16 AM PDT on May 01, 2017 (GMT -0700)
John Wayne-Orange County

Weather History for KSNA - April, 2012

Change the Weather History Date:

Thursday, April 26, 2012

  Actual Average Record
Temperature  
Mean Temperature 65 °F 63 °F  
Max Temperature 71 °F 70 °F 90 °F (2004)
Min Temperature 59 °F 55 °F 51 °F (2009)
Degree Days  
Heating Degree Days 0 3  
Month to date heating degree days 91 109  
Since 1 July heating degree days 1081 1196  
Cooling Degree Days 0 1  
Month to date cooling degree days 8 8  
Year to date cooling degree days 31 23  
Growing Degree Days 15 (Base 50)    
Moisture  
Dew Point 55 °F    
Average Humidity 72    
Maximum Humidity 90    
Minimum Humidity 53    
Precipitation  
Precipitation 0.07 in 0.03 in 0.07 in (2012)
Month to date precipitation 1.06 0.78  
Year to date precipitation 3.86 8.54  
Since 1 July precipitation 6.31  
Snow  
Snow 0.00 in - - ()
Month to date snowfall 0.0  
Year to date snowfall 0.0  
Snow Depth 0.00 in    
Sea Level Pressure  
Sea Level Pressure 29.98 in    
Wind  
Wind Speed 11 mph (SSW)    
Max Wind Speed 24 mph    
Max Gust Speed 29 mph    
Visibility 9 miles    
Events Rain    
T = Trace of Precipitation, MM = Missing Value Source: NWS Daily Summary

Daily Weather History Graph

Daily Weather History Graph

Search for Another Location

Airport or City:

Trip Planner

Search our weather history database for the weather conditions in past years. The results will help you decide how hot, cold, wet, or windy it might be!

Date:

Astronomy

Apr. 26, 2012 Rise Set
Actual Time 6:07 AM PDT 7:31 PM PDT
Civil Twilight 5:41 AM PDT 7:57 PM PDT
Nautical Twilight 5:09 AM PDT 8:29 PM PDT
Astronomical Twilight 4:37 AM PDT 9:02 PM PDT
Moon 9:57 AM PDT (4/26) No Moon Set
Length of Visible Light 14h 16m
Length of Day
13h 23m
Waxing Crescent, 25% of the Moon is Illuminated
Apr 26
Waxing Crescent
Apr 29
First Quarter
May 5
Full
May 12
Last Quarter
May 20
New

Hourly Weather History & Observations

Time (PDT) Temp. Dew Point Humidity Pressure Visibility Wind Dir Wind Speed Gust Speed Precip Events Conditions
12:53 AM 61.0 °F 57.0 °F 87% 29.88 in 9.0 mi East 6.9 mph - 0.04 in Rain Light Rain
1:53 AM 60.8 °F 55.4 °F 82% 29.86 in 10.0 mi Calm Calm - N/A   Partly Cloudy
2:53 AM 61.0 °F 57.0 °F 87% 29.86 in 10.0 mi South 4.6 mph - 0.00 in Rain Light Rain
3:53 AM 60.1 °F 55.9 °F 86% 29.86 in 10.0 mi SSW 5.8 mph - 0.00 in   Overcast
4:50 AM 60.8 °F 57.2 °F 88% 29.87 in 10.0 mi SSW 6.9 mph - N/A   Overcast
4:53 AM 60.8 °F 57.2 °F 88% 29.87 in 10.0 mi SSW 6.9 mph - N/A   Overcast
5:40 AM 60.8 °F 55.4 °F 82% 29.88 in 10.0 mi South 9.2 mph - 0.00 in   Overcast
5:49 AM 59.0 °F 57.2 °F 94% 29.88 in 2.5 mi South 6.9 mph - 0.02 in Rain Light Rain
5:53 AM 59.0 °F 57.0 °F 93% 29.88 in 3.0 mi South 6.9 mph - 0.02 in Rain Light Rain
6:05 AM 59.0 °F 57.2 °F 94% 29.88 in 6.0 mi South 5.8 mph - 0.00 in   Overcast
6:21 AM 59.0 °F 57.2 °F 94% 29.88 in 7.0 mi South 5.8 mph - 0.00 in   Mostly Cloudy
6:53 AM 59.0 °F 55.9 °F 90% 29.90 in 10.0 mi South 6.9 mph - 0.00 in   Scattered Clouds
7:34 AM 60.8 °F 55.4 °F 82% 29.93 in 10.0 mi South 8.1 mph - N/A   Mostly Cloudy
7:53 AM 60.1 °F 55.9 °F 86% 29.94 in 10.0 mi SSW 9.2 mph - N/A   Mostly Cloudy
8:53 AM 61.0 °F 54.0 °F 78% 29.97 in 10.0 mi SW 6.9 mph - 0.00 in   Overcast
9:00 AM 60.8 °F 53.6 °F 77% 29.97 in 10.0 mi SW 11.5 mph - N/A   Mostly Cloudy
9:40 AM 62.6 °F 55.4 °F 77% 29.99 in 10.0 mi South 10.4 mph - N/A   Scattered Clouds
9:53 AM 62.1 °F 54.0 °F 75% 29.99 in 10.0 mi South 11.5 mph - N/A   Scattered Clouds
10:53 AM 66.9 °F 53.1 °F 61% 30.02 in 10.0 mi SSW 8.1 mph - N/A   Scattered Clouds
11:53 AM 68.0 °F 53.1 °F 59% 30.04 in 10.0 mi SSW 12.7 mph 17.3 mph N/A   Mostly Cloudy
12:53 PM 70.0 °F 53.1 °F 55% 30.00 in 10.0 mi South 12.7 mph 19.6 mph N/A   Scattered Clouds
1:53 PM 71.1 °F 53.1 °F 53% 30.02 in 10.0 mi SW 19.6 mph 23.0 mph N/A   Scattered Clouds
2:12 PM 69.8 °F 55.4 °F 60% 30.04 in 10.0 mi SSW 21.9 mph 27.6 mph N/A   Partly Cloudy
2:53 PM 68.0 °F 54.0 °F 61% 30.05 in 10.0 mi SSW 18.4 mph 25.3 mph N/A   Scattered Clouds
3:53 PM 66.0 °F 55.0 °F 68% 30.05 in 10.0 mi SSW 13.8 mph - N/A   Scattered Clouds
4:53 PM 64.9 °F 54.0 °F 68% 30.06 in 10.0 mi SSW 9.2 mph - N/A   Scattered Clouds
5:09 PM 64.4 °F 53.6 °F 68% 30.06 in 10.0 mi SSW 8.1 mph - N/A   Mostly Cloudy
5:53 PM 64.0 °F 54.0 °F 70% 30.05 in 10.0 mi South 9.2 mph - N/A   Scattered Clouds
6:53 PM 62.1 °F 55.0 °F 78% 30.04 in 10.0 mi SSW 10.4 mph - N/A   Scattered Clouds
7:53 PM 62.1 °F 55.0 °F 78% 30.05 in 10.0 mi WSW 5.8 mph - N/A   Mostly Cloudy
8:53 PM 62.6 °F 55.4 °F 77% 30.06 in 10.0 mi SSW 5.8 mph - N/A   Mostly Cloudy
9:00 PM 62.6 °F 53.6 °F 72% 30.07 in 10.0 mi SW 4.6 mph - N/A   Mostly Cloudy
9:53 PM 61.0 °F 55.0 °F 81% 30.07 in 10.0 mi SSW 4.6 mph - N/A   Scattered Clouds
10:53 PM 61.0 °F 55.0 °F 81% 30.08 in 10.0 mi WSW 3.5 mph - N/A   Mostly Cloudy
11:53 PM 60.1 °F 55.0 °F 83% 30.08 in 10.0 mi SW 5.8 mph - N/A   Mostly Cloudy